Lid_Strength_Index
2 6 6 6 10 12 14 12 9 9 8 6 6 7 8 7 9 11 6 4 2 0 -0 -1 -1 -1 -1 -1 -1 -1 -1 -1 -1 -1 -1 -1 -1 -1 -1 -1 -1 -1 -1 -1 -1 -1 -1 -1 -1
4 6 5 8 12 16 15 12 11 10 6 8 9 9 8 8 9 9 6 4 0 -0 -1 -1 -0 -1 -1 -1 -1 -1 -1 -1 -1 -1 -1 -1 -1 -1 -1 -1 -1 -1 -1 -1 -1 -1 -1 -1 -1
8 6 6 9 12 14 14 12 11 10 8 9 8 9 8 8 10 9 6 3 0 0 -0 -1 -0 -1 -1 -1 -1 -1 -1 -1 -1 -1 -1 -1 -1 -1 -1 -0 -0 -0 -1 -1 -1 -1 -1 -1 -1
9 7 8 11 14 11 11 11 11 8 8 8 8 9 9 10 10 9 6 2 1 1 1 -0 -1 -1 -1 -1 -1 -2 -1 -1 -1 -1 -1 -0 -0 -1 -0 0 1 0 -0 -1 -1 -1 -0 -0 -0
8 8 11 13 13 10 10 10 10 9 8 8 9 9 10 10 10 7 4 2 1 2 1 -0 -1 -1 -1 -2 -1 -1 -1 -1 -1 -1 0 1 0 -0 0 0 -0 -0 -0 -0 -0 0 0 0 -0
10 9 13 15 13 10 9 8 9 9 9 9 10 10 10 11 10 6 4 3 3 3 3 1 1 -0 -1 -1 -1 -1 -1 0 0 1 0 0 0 1 1 1 1 1 1 0 1 1 1 2 2
10 11 13 13 13 11 10 8 9 8 8 9 9 10 9 12 10 6 6 5 4 3 3 3 2 1 1 0 0 0 0 1 1 -0 1 1 2 2 2 1 2 1 1 1 2 2 2 3 3
11 11 12 12 13 12 8 9 8 8 8 9 9 9 9 10 10 8 8 7 6 6 5 4 4 3 3 2 1 1 0 0 0 1 1 2 2 3 2 3 3 2 2 2 2 3 3 4 4
10 13 14 12 12 11 10 10 10 10 9 10 10 9 11 12 9 9 11 10 10 8 7 6 6 5 5 4 3 2 2 1 1 2 3 5 6 5 4 3 3 3 3 3 3 4 5 5 6
13 15 13 10 9 10 11 12 11 13 13 12 12 12 13 12 10 10 11 11 11 10 10 8 7 7 6 5 4 4 4 4 5 5 6 7 7 6 6 5 4 4 4 4 5 5 6 7 6
14 15 12 12 11 12 13 14 12 14 14 12 11 11 13 13 11 10 10 10 11 10 11 10 9 8 8 7 6 7 6 7 7 7 7 7 7 7 7 7 7 7 7 7 7 7 7 7 7
17 14 13 11 12 14 14 13 14 14 11 11 11 11 14 13 13 12 11 11 12 12 12 11 10 10 10 9 8 8 8 8 8 7 7 7 8 8 8 8 8 7 7 7 7 7 7 8 8
15 15 14 13 13 14 15 15 15 15 12 12 13 13 14 13 13 12 11 11 13 12 12 12 11 10 10 10 9 9 8 8 8 8 7 8 8 8 8 8 8 8 8 7 7 7 8 8 8
14 14 15 14 14 15 16 16 16 14 12 13 14 14 14 14 13 13 13 13 13 12 12 11 11 10 11 10 9 9 9 8 8 8 7 8 8 8 8 8 8 8 8 8 8 8 8 8 8
14 16 16 15 15 15 16 17 18 14 13 14 14 13 14 14 13 13 13 13 12 12 11 12 11 11 10 10 10 9 9 9 9 9 7 8 8 8 8 9 9 8 8 8 8 8 8 8 9
16 16 17 14 15 15 15 17 14 14 15 15 15 15 16 15 14 13 12 13 13 12 12 11 11 12 11 10 10 10 9 9 9 9 8 8 8 8 8 9 9 9 9 9 9 9 9 9 10
17 19 18 16 14 16 17 18 14 15 16 16 16 16 16 15 15 14 13 13 13 13 13 12 11 11 11 11 10 10 9 9 9 9 8 8 8 8 8 9 9 9 9 9 10 10 10 10 10
18 19 18 18 15 17 18 19 16 14 16 16 15 16 17 16 15 13 13 13 13 13 13 12 11 11 11 11 11 10 10 10 9 9 8 8 8 8 8 9 9 9 9 10 10 11 10 10 11
17 18 18 17 16 17 18 17 16 14 15 16 15 15 14 15 14 13 13 13 13 13 12 11 11 11 11 11 12 11 11 10 10 9 8 8 8 8 9 9 9 9 9 10 11 11 11 11 11
17 18 18 17 16 17 18 19 17 15 15 15 15 15 14 14 15 14 13 13 13 12 11 11 11 11 11 10 10 11 11 10 9 9 9 8 8 8 9 9 9 9 10 11 11 12 12 12 11
18 17 18 17 17 18 19 19 17 17 16 15 14 14 14 14 14 15 14 13 11 10 10 10 10 10 10 10 12 11 11 12 11 10 9 8 8 8 8 9 9 9 9 11 12 12 12 12 12
19 18 17 17 18 22 20 23 19 17 16 16 15 14 14 14 14 14 14 13 12 11 10 10 10 10 10 10 11 12 11 11 10 9 9 9 8 8 8 9 9 9 10 11 12 12 12 12 13
19 19 19 19 20 21 22 22 21 19 18 16 15 14 14 15 15 15 15 13 12 11 11 10 10 11 11 11 11 10 10 10 10 10 9 9 9 8 8 9 9 10 10 11 12 12 12 12 12
18 19 19 21 22 26 22 21 20 19 18 17 15 14 13 13 13 14 15 13 13 11 11 11 11 11 10 10 10 10 10 11 11 10 10 9 9 9 9 9 9 10 11 12 12 12 12 12 12
18 20 24 27 28 25 24 23 19 17 16 16 15 15 14 14 14 14 15 15 14 13 11 11 11 11 11 11 11 11 10 10 10 10 10 10 10 10 9 9 10 11 12 12 12 12 12 12 12
19 19 22 26 26 24 22 24 20 18 16 16 15 14 14 14 14 13 14 15 15 13 12 11 11 11 11 11 11 10 11 11 11 10 10 10 9 9 10 10 11 12 12 12 12 12 12 12 12
19 20 19 22 26 24 21 20 18 16 16 16 15 15 14 14 14 13 13 14 15 14 13 12 12 12 12 11 11 11 12 12 12 11 10 10 10 11 11 11 12 12 12 13 12 12 12 12 12
19 17 21 22 27 28 22 22 20 16 16 16 16 16 15 15 14 14 14 14 14 14 14 13 12 12 12 11 11 11 12 11 11 12 12 11 11 11 12 12 12 13 13 12 12 12 12 13 13
20 21 21 20 21 23 25 21 18 18 16 17 17 16 16 16 16 16 15 15 15 14 14 13 13 12 12 12 12 12 12 12 12 12 12 12 12 12 13 13 13 12 12 12 12 12 13 13 13
18 18 19 22 24 23 22 21 16 16 16 16 17 16 16 16 16 16 16 16 15 15 14 14 13 13 12 12 12 12 12 12 12 12 12 12 12 13 12 12 12 12 12 12 12 13 13 14 14